Regional Weather Roundup
Issued by NWS

Home | Current Version | Previous Version | Text Only | Print | Product List | Glossary Off
Versions: 1 2 3 4 5 6 7 8 9 10 11 12 13 14 15 16 17 18 19 20 21 22 23 24 25 26 27 28 29 30 31 32 33 34 35 36 37 38 39 40 41 42 43 44 45 46 47 48 49 50

187
ASUS45 KBOU 290607
RWRCO

WEATHER ROUNDUP FOR COLORADO
NATIONAL WEATHER SERVICE DENVER/BOULDER CO
1200 AM MDT SAT APR 29 2017

NOTE: "FAIR" INDICATES FEW OR NO CLOUDS BELOW 12000 FEET WITH NO
SIGNIFICANT WEATHER AND/OR OBSTRUCTIONS TO VISIBILITY.

COZ001>005-013-030-031-290700-
...NORTHWEST COLORADO...

CITY           SKY/WX    TMP DP  RH WIND       PRES   REMARKS
CRAIG          FAIR      34  28  79 NE6       29.91R WCI  29
HAYDEN         FAIR      34  18  51 E10       29.91R WCI  26
MEEKER         CLOUDY    32  30  92 W6        29.88S WCI  26
MOUNT WERNER   NOT AVBL
STEAMBOAT SPGS MOCLDY    32  17  53 NE22G28   29.89F WCI  19
WALDEN           N/A     23  12  63 NE14      29.97F WCI  11
$$

COZ006>008-011-290700-
...WEST CENTRAL VALLEYS...

CITY           SKY/WX    TMP DP  RH WIND       PRES   REMARKS
GRAND JUNCTION FAIR      38  27  64 SW3       29.84S
MONTROSE       LGT SNOW  36  28  73 E9G20     29.87R
EAGLE          CLOUDY    35  28  75 W5        29.89R WCI  31
RIFLE          CLOUDY    37  29  72 CALM      29.86R
DELTA          CLOUDY    43  25  49 NE5       29.84R
NUCLA          CLOUDY    36  23  60 E6        29.86S
$$

COZ017>023-064>068-290700-
...SOUTHWEST COLORADO...

CITY           SKY/WX    TMP DP  RH WIND       PRES   REMARKS
DURANGO        FAIR      31  23  72 CALM      29.81F
CORTEZ         CLOUDY    36  26  67 CALM      29.83S
PAGOSA SPRINGS CLOUDY    31  24  73 CALM      29.83F
TELLURIDE      LGT SNOW  24  22  94 CALM      29.84S
WOLF CREEK PAS LGT SNOW  14  14 100 S6        29.87F WCI   5
$$

COZ009-010-012-014-032>034-037-058>063-290700-
...CENTRAL COLORADO...

CITY           SKY/WX    TMP DP  RH WIND       PRES   REMARKS
ASPEN          MOCLDY    31  24  75 CALM      29.84R
BUENA VISTA    CLOUDY    28  19  66 NE13G20   29.94R WCI  18
COPPER MTN     LGT SNOW  14   9  79 MISG      29.84F
BERTHOUD PASS  HVY SNOW   5  -6  61 E30G39    29.89R VSB<1/4 WCI -19
COTTONWOOD PAS LGT SNOW  23  19  86 E16G31    29.91R WCI  10
GUNNISON       LGT SNOW  29  26  89 W9        29.84R FOG     WCI  20
KREMMLING      CLOUDY    34  21  60 E12       29.94R WCI  25
LEADVILLE      LGT SNOW  19  13  77 CALM      29.87R
MONARCH PASS   CLOUDY    14  12  92 E46G55    29.87R WCI -10
SALIDA         CLOUDY    31  26  81 NE15G22   30.00R WCI  20
SUNLIGHT       LGT SNOW  19  18  93 NE6       29.89R VSB 3/4 WCI  11
WILKERSON PASS CLOUDY    12  10  92 NE18G33   29.90R WCI  -5
$$

COZ069>075-290700-
...SAN LUIS VALLEY/SANGRE DE CRISTO MOUNTAINS...

CITY           SKY/WX    TMP DP  RH WIND       PRES   REMARKS
ALAMOSA        CLOUDY    33  24  69 E21G30    29.79F WCI  21
LA VETA PASS   SNOW      21  18  86 MISG      29.97F VSB 1/2
SAGUACHE       CLOUDY    32  21  64 CALM      29.84R
$$

COZ035-036-038>040-290700-
...NORTHERN COLORADO FRONT RANGE...

CITY           SKY/WX    TMP DP  RH WIND       PRES   REMARKS
DENVER INTL AP LGT SNOW  30  27  88 NE22      30.06F FOG     WCI  17
DMNS CITY PARK   N/A     29  29 100 N14G20    30.10S WCI  19
AURORA         LGT SNOW  28  28  99 NE16G23   30.07S FOG     WCI  17
FRONT RANGE AP FLURRIES  32  32 100 NE18      30.08R WCI  20
ERIE MUNI ARPT LGT SNOW  31  30  96 N12       30.11S WCI  22
BOULDER MUN AP LGT SNOW  32  30  93 N10       30.11S WCI  24
CENTENNIAL     SNOW      28  28 100 N15       30.05F VSB 1/2 WCI  16
BROOMFIELD     LGT SNOW  30  30 100 N12G18    30.08S WCI  21
FORT COLLINS   NOT AVBL
LONGMONT       LGT SNOW  33  31  90 NE7       30.14S WCI  27
$$

COZ041-046-047-076>085-087-088-290700-
...PIKES PEAK/PALMER DIVIDE AND SOUTHERN FOOTHILLS...

CITY           SKY/WX    TMP DP  RH WIND       PRES   REMARKS
COLO. SPRINGS  LGT SNOW  31  27  85 N15       30.01R VSB 1   WCI  20
A. F. ACADEMY  LGT SNOW  28  26  92 N12       30.01R FOG     WCI  18
SCHRIEVER AFB  LGT SNOW  28  27  98 N17G28    30.01R WCI  15
ELLICOTT       SNOW     N/A N/A N/A NE20      29.98R
FALCON         LGT SNOW  27  25  91 N20G26    30.00R WCI  14
FORT CARSON    MIX PCPN  30  28  93 N23       30.00R FOG     WCI  17
LIMON          LGT SNOW  29  29 100 N18G25    30.00S FOG     WCI  16
MONUMENT HILL  CLOUDY    25  23  93 NE15G23   30.02S WCI  12
TRINIDAD       LGT SNOW  32  31  96 N17       29.91R FOG     WCI  21
$$

COZ042>045-048>051-090-091-290700-
...NORTHEAST COLORADO...

CITY           SKY/WX    TMP DP  RH WIND       PRES   REMARKS
GREELEY ARPT   FLURRIES  32  30  92 NE12      30.15R WCI  23
AKRON          CLOUDY    31  28  89 NE21      30.07S WCI  18
BURLINGTON     NOT AVBL
WRAY           NOT AVBL
STERLING       CLOUDY    34  32  93 NE12G17   30.12R WCI  25
HOLYOKE        CLOUDY    37  36  93 N12       30.12R
FORT MORGAN    CLOUDY    32  31  94 NE18      30.11S FOG     WCI  20
$$

COZ086-089-092>099-290700-
...SOUTHEAST COLORADO...

CITY           SKY/WX    TMP DP  RH WIND       PRES   REMARKS
PUEBLO         SNOW      33  31  92 NE15      30.02R VSB 1/2 WCI  23
LA JUNTA       LGT SNOW  34  32  92 NE21G29   29.96R FOG     WCI  22
LAMAR          LGT SNOW  33  31  92 NE14      29.94R FOG     WCI  23
SPRINGFIELD      N/A     34  34 100 NE20G26   29.88R WCI  23
$$




USA.gov is the U.S. government's official web portal to all federal, state and local government web resources and services.